Location: Champs
(48.8539°N, 2.6040°E)
Time: 06:00:18
(UTC+00:00)

ARIANE 5 R/B - Pass Details

Date: 26 October 2021
Orbit: 749 x 794 km, 98.7° (Epoch: 04 December)

Event Time Altitude Azimuth Distance (km) Brightness Sun altitude
Rises 02:46:55 0° 19° (NNE) 3,210 6.3 -36.1°
Reaches altitude 10° 02:49:20 10° 27° (NNE) 2,282 5.5 -35.8°
Enters shadow 02:52:09 30° 49° (NE) 1,337 4.1 -35.4°
